SENTINEL-2C

Last updated on Thu Oct 30 2025 00:02:32 GMT+0000 (Coordinated Universal Time)

1 60989U 24157A 25302.47339771 .00000207 00000+0 95488-4 0 9990 2 60989 98.5646 15.6166 0000917 97.4336 262.6951 14.30817719 59990
UTC large
Height (km)
Speed (km/s)
/
Latitude / Longitude
Inclination (degrees)
Orbital Period (minutes)
Azimuth
Elevation
Range (km)
Doppler Factor

Next 0 passes for location: London (51.5072 / 0.1276)

Sorry there are no passes over London.